Вернуться в каталог

LEMUR-2-DELOITTE-6

АктивенНаукаSSO
NORAD 69882·PAYLOAD·🇺🇸 United States

Запущен Jul 7, 2026 с Vandenberg Space Force Base

Loading…

Ближайшие Пролёты (ближайшие 24 часа)

TLE

СвежийSource: Space-Track

Эпоха: Sep 14, 2026, 15:48 UTC

1 69882U 26156P   26257.65853413  .00001565  00000-0  16258-3 0  9992
2 69882  97.7488 156.9163 0002058 302.6499  57.4521 14.91338136 10337

Отслеживайте LEMUR-2-DELOITTE-6 в реальном времени с AllMySat

Download on the App Store